QPF
0.01 0.01 0.03 0.03 0.01 0.01 0.03 0.03 0.01 0.01 0.04 0.02 0.01 0.01 0.00 0.00 0.00 0.00 0.00 0.00 0.00 0.00 0.00 0.00 0.00 0.00 0.00 0.00 0.00 0.00 0.00 0.00 0.00 0.00 0.00 0.00 0.00 0.00 0.00 0.00 0.00 0.00 0.00 0.00
0.03 0.03 0.04 0.03 0.01 0.02 0.04 0.02 0.01 0.02 0.07 0.01 0.00 0.01 0.00 0.00 0.00 0.00 0.00 0.00 0.00 0.00 0.00 0.00 0.00 0.00 0.00 0.00 0.00 0.00 0.00 0.00 0.00 0.00 0.00 0.00 0.00 0.00 0.00 0.00 0.00 0.00 0.00 0.00
0.02 0.03 0.02 0.03 0.01 0.03 0.06 0.03 0.02 0.02 0.04 0.01 0.01 0.01 0.01 0.00 0.00 0.00 0.00 0.00 0.00 0.00 0.00 0.00 0.00 0.00 0.00 0.00 0.00 0.00 0.00 0.00 0.00 0.00 0.00 0.00 0.00 0.00 0.00 0.00 0.00 0.00 0.00 0.00
0.02 0.02 0.03 0.03 0.02 0.03 0.07 0.04 0.02 0.02 0.02 0.01 0.01 0.02 0.01 0.01 0.00 0.00 0.00 0.00 0.00 0.00 0.00 0.00 0.00 0.00 0.00 0.00 0.00 0.00 0.00 0.00 0.00 0.00 0.00 0.00 0.00 0.00 0.00 0.00 0.00 0.00 0.00 0.00
0.04 0.02 0.03 0.03 0.02 0.03 0.07 0.03 0.02 0.02 0.01 0.01 0.01 0.01 0.01 0.01 0.00 0.00 0.00 0.00 0.00 0.00 0.00 0.00 0.00 0.00 0.00 0.00 0.00 0.00 0.00 0.00 0.00 0.00 0.00 0.00 0.00 0.00 0.00 0.00 0.00 0.00 0.00 0.00
0.02 0.02 0.03 0.04 0.01 0.05 0.05 0.03 0.03 0.03 0.02 0.01 0.01 0.01 0.01 0.00 0.01 0.01 0.00 0.00 0.00 0.00 0.00 0.00 0.00 0.00 0.00 0.00 0.00 0.00 0.00 0.00 0.00 0.00 0.00 0.00 0.00 0.00 0.00 0.00 0.00 0.00 0.00 0.00
0.01 0.02 0.02 0.03 0.02 0.04 0.04 0.04 0.04 0.02 0.01 0.01 0.00 0.00 0.00 0.00 0.01 0.01 0.00 0.00 0.00 0.00 0.00 0.00 0.00 0.00 0.00 0.00 0.00 0.00 0.00 0.01 0.00 0.00 0.00 0.00 0.00 0.00 0.00 0.00 0.00 0.00 0.00 0.00
0.01 0.01 0.01 0.01 0.01 0.02 0.06 0.04 0.04 0.02 0.01 0.00 0.00 0.00 0.00 0.01 0.01 0.00 0.00 0.00 0.00 0.00 0.00 0.01 0.00 0.01 0.01 0.00 0.00 0.00 0.00 0.00 0.00 0.00 0.00 0.00 0.00 0.00 0.00 0.00 0.00 0.00 0.00 0.00
0.02 0.02 0.02 0.02 0.01 0.02 0.06 0.04 0.04 0.03 0.02 0.01 0.00 0.01 0.01 0.01 0.01 0.00 0.00 0.00 0.00 0.00 0.01 0.02 0.01 0.01 0.01 0.00 0.00 0.00 0.00 0.00 0.00 0.00 0.00 0.00 0.00 0.00 0.00 0.00 0.00 0.00 0.00 0.00
0.01 0.02 0.02 0.02 0.02 0.01 0.05 0.04 0.04 0.04 0.02 0.01 0.01 0.01 0.01 0.02 0.01 0.01 0.00 0.00 0.00 0.00 0.01 0.02 0.01 0.00 0.00 0.01 0.01 0.01 0.00 0.01 0.00 0.01 0.01 0.00 0.00 0.00 0.00 0.00 0.00 0.00 0.00 0.00
0.01 0.02 0.02 0.02 0.02 0.01 0.05 0.03 0.04 0.03 0.01 0.02 0.02 0.01 0.01 0.01 0.02 0.02 0.01 0.00 0.00 0.00 0.01 0.02 0.01 0.01 0.00 0.00 0.01 0.00 0.00 0.00 0.00 0.00 0.01 0.00 0.00 0.00 0.00 0.00 0.00 0.00 0.00 0.00
0.01 0.02 0.02 0.03 0.03 0.02 0.04 0.03 0.03 0.04 0.02 0.02 0.01 0.01 0.01 0.00 0.01 0.01 0.01 0.01 0.00 0.00 0.01 0.01 0.01 0.00 0.00 0.00 0.00 0.00 0.01 0.00 0.00 0.00 0.00 0.00 0.00 0.00 0.00 0.00 0.00 0.00 0.00 0.00
0.01 0.01 0.02 0.03 0.04 0.03 0.04 0.02 0.03 0.03 0.01 0.00 0.02 0.01 0.00 0.00 0.01 0.02 0.01 0.00 0.00 0.00 0.01 0.03 0.02 0.01 0.00 0.00 0.00 0.00 0.00 0.00 0.00 0.00 0.00 0.00 0.00 0.00 0.00 0.00 0.00 0.00 0.00 0.00
0.01 0.01 0.01 0.02 0.03 0.03 0.03 0.02 0.02 0.01 0.00 0.01 0.00 0.00 0.00 0.00 0.01 0.03 0.02 0.01 0.01 0.01 0.02 0.03 0.03 0.01 0.00 0.00 0.00 0.00 0.00 0.00 0.00 0.00 0.00 0.00 0.00 0.00 0.00 0.00 0.00 0.00 0.00 0.00
0.01 0.01 0.01 0.02 0.02 0.03 0.02 0.01 0.01 0.00 0.00 0.01 0.00 0.00 0.00 0.00 0.00 0.01 0.02 0.01 0.01 0.03 0.02 0.01 0.01 0.01 0.01 0.01 0.00 0.00 0.00 0.00 0.00 0.00 0.00 0.00 0.00 0.00 0.00 0.00 0.00 0.00 0.00 0.00
0.01 0.03 0.01 0.01 0.02 0.02 0.01 0.01 0.01 0.00 0.00 0.00 0.01 0.00 0.00 0.00 0.00 0.00 0.01 0.01 0.03 0.04 0.02 0.01 0.01 0.00 0.02 0.02 0.00 0.00 0.00 0.00 0.00 0.00 0.00 0.00 0.00 0.00 0.00 0.00 0.00 0.00 0.00 0.00
0.02 0.04 0.03 0.02 0.03 0.02 0.00 0.00 0.00 0.00 0.01 0.00 0.00 0.00 0.00 0.00 0.00 0.01 0.01 0.02 0.04 0.04 0.02 0.01 0.01 0.01 0.03 0.01 0.01 0.00 0.00 0.00 0.00 0.00 0.00 0.00 0.00 0.00 0.00 0.00 0.00 0.00 0.00 0.00
0.02 0.03 0.03 0.03 0.02 0.02 0.00 0.01 0.00 0.00 0.00 0.00 0.00 0.00 0.01 0.00 0.00 0.00 0.01 0.03 0.02 0.00 0.00 0.00 0.01 0.02 0.01 0.00 0.00 0.00 0.00 0.00 0.00 0.00 0.00 0.00 0.00 0.00 0.00 0.00 0.00 0.00 0.00 0.00
0.03 0.03 0.03 0.01 0.00 0.01 0.01 0.00 0.00 0.00 0.00 0.00 0.00 0.00 0.00 0.01 0.01 0.01 0.02 0.01 0.01 0.01 0.00 0.00 0.01 0.01 0.01 0.00 0.00 0.00 0.00 0.00 0.00 0.00 0.00 0.00 0.00 0.00 0.00 0.00 0.00 0.00 0.00 0.00
0.04 0.01 0.00 0.01 0.01 0.00 0.00 0.00 0.00 0.00 0.00 0.00 0.00 0.00 0.00 0.01 0.01 0.02 0.02 0.02 0.01 0.01 0.00 0.00 0.00 0.00 0.00 0.00 0.00 0.00 0.00 0.00 0.00 0.00 0.00 0.00 0.00 0.00 0.00 0.00 0.00 0.00 0.00 0.00
0.00 0.00 0.00 0.00 0.00 0.00 0.00 0.00 0.00 0.00 0.00 0.00 0.00 0.00 0.00 0.00 0.01 0.01 0.02 0.02 0.01 0.02 0.00 0.00 0.00 0.00 0.00 0.00 0.00 0.00 0.00 0.00 0.00 0.00 0.00 0.00 0.00 0.00 0.00 0.00 0.00 0.00 0.00 0.00
0.00 0.00 0.00 0.00 0.00 0.00 0.00 0.00 0.00 0.00 0.00 0.00 0.00 0.00 0.00 0.00 0.00 0.01 0.00 0.01 0.00 0.02 0.00 0.00 0.00 0.00 0.00 0.00 0.00 0.00 0.00 0.00 0.00 0.00 0.00 0.00 0.00 0.00 0.00 0.00 0.00 0.00 0.00 0.00
0.00 0.00 0.00 0.00 0.00 0.00 0.00 0.00 0.00 0.00 0.00 0.00 0.00 0.00 0.00 0.00 0.00 0.00 0.01 0.01 0.00 0.00 0.00 0.00 0.00 0.00 0.00 0.00 0.00 0.00 0.00 0.00 0.00 0.00 0.00 0.00 0.00 0.00 0.00 0.00 0.00 0.00 0.00 0.00
0.00 0.00 0.00 0.00 0.00 0.00 0.00 0.00 0.00 0.00 0.00 0.00 0.00 0.00 0.00 0.00 0.00 0.00 0.00 0.00 0.00 0.00 0.00 0.00 0.00 0.00 0.00 0.00 0.00 0.00 0.00 0.00 0.00 0.00 0.00 0.00 0.00 0.00 0.00 0.00 0.00 0.00 0.00 0.00
0.00 0.00 0.00 0.00 0.00 0.00 0.00 0.00 0.00 0.00 0.00 0.00 0.00 0.00 0.00 0.00 0.00 0.00 0.00 0.00 0.00 0.00 0.00 0.00 0.00 0.00 0.00 0.00 0.00 0.00 0.00 0.00 0.00 0.00 0.00 0.00 0.00 0.00 0.00 0.00 0.00 0.00 0.00 0.00
0.00 0.00 0.00 0.00 0.00 0.00 0.00 0.00 0.00 0.00 0.00 0.00 0.00 0.00 0.00 0.00 0.00 0.00 0.00 0.00 0.00 0.00 0.00 0.00 0.00 0.00 0.00 0.00 0.00 0.00 0.00 0.00 0.00 0.00 0.00 0.00 0.00 0.00 0.00 0.00 0.00 0.00 0.00 0.00
0.00 0.00 0.00 0.00 0.00 0.00 0.00 0.00 0.00 0.00 0.00 0.00 0.00 0.00 0.00 0.00 0.00 0.00 0.00 0.00 0.00 0.00 0.00 0.00 0.00 0.00 0.00 0.00 0.00 0.00 0.00 0.00 0.00 0.00 0.00 0.00 0.00 0.00 0.00 0.00 0.00 0.00 0.00 0.00
MSLP
1017.42 1017.54 1017.74 1017.89 1018.07 1018.11 1018.66 1017.89 1016.87 1015.86 1016.23 1016.74 1015.94 1015.09 1014.04 1013.55 1012.56 1012.39 1012.16 1011.89 1011.47 1011.06 1010.56 1009.67 1008.79 1007.80 1007.17 1007.06 1005.94 1004.77 1004.51 1004.03 1002.98 1002.28 1002.51 1001.91 1001.40 1001.53 1001.81 1001.67 1001.70 1001.76 1001.18 999.72
1016.74 1016.83 1017.07 1017.19 1017.58 1017.62 1017.73 1017.00 1016.41 1015.87 1016.10 1015.65 1015.17 1014.66 1014.11 1013.25 1012.59 1012.20 1012.00 1011.68 1011.69 1011.32 1011.05 1010.48 1009.11 1008.13 1007.70 1007.75 1006.87 1006.33 1005.54 1004.17 1003.33 1002.91 1002.99 1002.77 1002.31 1002.59 1002.46 1002.64 1002.61 1001.64 1001.47 1000.32
1015.88 1016.13 1016.45 1016.67 1016.85 1017.10 1017.80 1016.82 1015.97 1015.78 1015.70 1015.08 1014.45 1013.82 1013.41 1012.85 1012.65 1012.19 1012.08 1011.73 1011.88 1011.68 1011.08 1010.47 1009.52 1008.75 1008.28 1008.09 1007.81 1007.26 1006.21 1004.84 1003.89 1003.01 1002.80 1002.76 1003.29 1003.34 1003.38 1003.03 1002.66 1002.04 1001.58 1001.01
1014.93 1015.21 1015.56 1015.86 1016.10 1016.43 1017.33 1016.62 1015.43 1014.04 1014.36 1014.26 1014.04 1013.56 1012.92 1012.04 1011.96 1012.21 1011.98 1011.67 1011.59 1011.51 1011.27 1010.28 1009.75 1009.26 1008.76 1008.37 1008.12 1007.35 1006.84 1006.00 1005.17 1004.59 1004.45 1004.25 1003.95 1003.65 1003.56 1003.30 1003.14 1002.75 1002.07 1001.60
1014.05 1014.29 1014.67 1014.82 1015.56 1015.86 1016.48 1015.84 1015.31 1014.74 1013.78 1013.25 1013.24 1012.85 1012.49 1011.86 1011.79 1011.78 1011.47 1011.45 1011.32 1011.51 1011.16 1010.73 1009.78 1009.84 1009.65 1009.10 1008.62 1008.04 1007.51 1006.40 1006.01 1005.50 1005.16 1004.86 1004.31 1003.81 1003.42 1003.12 1002.88 1002.55 1002.13 1001.30
1013.09 1013.42 1013.73 1014.09 1014.58 1015.25 1014.94 1015.37 1015.24 1015.11 1013.41 1012.87 1012.35 1011.79 1011.80 1011.49 1011.63 1011.44 1011.26 1011.39 1011.47 1011.54 1011.11 1011.04 1010.72 1010.69 1010.54 1010.13 1009.61 1009.18 1008.44 1007.40 1006.75 1005.92 1005.84 1005.19 1004.31 1003.35 1002.95 1002.65 1002.24 1002.09 1001.62 1001.29
1012.07 1012.34 1012.66 1012.99 1013.65 1014.10 1014.33 1014.59 1014.95 1014.76 1013.37 1012.61 1011.60 1011.49 1011.35 1011.16 1011.30 1011.43 1011.26 1011.79 1011.77 1012.04 1011.98 1011.39 1010.93 1010.58 1010.30 1010.04 1009.66 1009.81 1009.00 1008.22 1007.82 1006.78 1006.71 1005.18 1003.27 1003.32 1003.04 1002.75 1002.45 1002.18 1002.08 1002.14
1010.88 1011.16 1011.61 1012.12 1012.85 1013.32 1013.85 1014.12 1014.55 1014.16 1013.12 1011.87 1011.30 1011.08 1010.94 1011.03 1011.41 1012.14 1012.17 1011.60 1011.97 1012.64 1013.09 1012.02 1010.42 1009.59 1009.48 1009.04 1009.10 1009.18 1009.37 1008.77 1008.14 1007.40 1006.13 1004.55 1003.89 1003.02 1002.85 1002.61 1002.41 1002.73 1002.54 1002.56
1009.62 1010.06 1010.55 1011.15 1011.78 1012.36 1013.01 1013.25 1013.88 1013.96 1013.13 1011.45 1010.54 1010.44 1010.59 1010.67 1011.05 1011.76 1012.00 1012.46 1012.66 1013.00 1012.85 1011.70 1009.87 1008.40 1007.86 1007.94 1008.04 1008.48 1009.16 1009.10 1008.44 1007.77 1006.40 1004.94 1003.28 1003.48 1003.40 1003.01 1002.78 1003.04 1003.31 1003.07
1008.35 1008.91 1009.45 1010.07 1010.69 1011.35 1012.04 1012.09 1013.03 1013.70 1012.87 1011.70 1011.39 1010.22 1010.05 1010.44 1011.00 1011.44 1011.70 1012.23 1012.34 1012.72 1012.12 1010.96 1009.50 1008.41 1008.03 1007.34 1007.09 1007.88 1008.34 1008.43 1007.78 1007.22 1006.11 1004.77 1003.85 1003.58 1003.61 1003.46 1004.01 1003.84 1003.75 1003.45
1006.94 1007.51 1008.09 1008.70 1009.43 1010.16 1011.14 1011.23 1011.91 1012.60 1012.19 1011.85 1010.81 1010.23 1009.88 1009.96 1010.57 1011.00 1011.17 1011.94 1011.83 1011.97 1011.22 1009.92 1009.07 1008.30 1007.58 1007.08 1006.53 1006.85 1007.08 1007.00 1006.70 1006.43 1005.72 1004.96 1004.00 1004.11 1004.05 1004.52 1004.43 1004.50 1004.07 1003.80
1005.39 1005.97 1006.53 1007.18 1007.93 1008.78 1009.95 1010.29 1010.93 1011.86 1012.17 1011.34 1010.00 1009.70 1009.30 1009.10 1009.00 1010.18 1010.84 1009.99 1010.07 1010.11 1009.70 1008.98 1008.56 1008.01 1007.53 1006.69 1005.97 1006.11 1005.91 1005.26 1004.92 1004.97 1004.44 1004.61 1004.53 1004.48 1005.08 1005.52 1005.31 1005.31 1005.34 1004.83
1003.79 1004.36 1004.93 1005.54 1006.30 1007.28 1008.28 1009.02 1009.86 1011.32 1011.79 1011.04 1010.06 1008.85 1008.62 1008.78 1008.87 1009.78 1010.32 1009.87 1009.59 1009.36 1008.70 1009.02 1008.40 1007.88 1007.09 1006.48 1005.90 1005.23 1005.13 1005.08 1005.00 1005.07 1004.61 1004.57 1004.64 1005.24 1006.45 1006.79 1006.77 1006.67 1006.41 1005.96
1002.35 1002.95 1003.57 1004.11 1004.78 1005.37 1006.69 1008.11 1008.95 1010.26 1009.97 1009.67 1008.52 1008.20 1007.80 1007.66 1008.40 1008.95 1009.58 1009.45 1009.43 1009.42 1009.55 1009.08 1008.60 1007.95 1007.14 1006.36 1005.87 1005.48 1005.08 1004.96 1005.31 1005.11 1005.09 1005.03 1005.27 1006.48 1007.27 1007.66 1007.73 1007.72 1007.54 1007.38
1001.10 1001.73 1002.41 1003.13 1003.77 1004.74 1006.25 1007.62 1008.14 1008.78 1008.68 1008.00 1007.66 1007.73 1007.52 1007.37 1007.80 1008.35 1008.97 1009.36 1009.51 1009.35 1009.62 1009.55 1009.20 1008.05 1007.74 1007.00 1006.82 1005.81 1005.57 1005.61 1005.71 1005.78 1006.51 1006.82 1006.79 1007.31 1008.26 1008.12 1008.27 1008.44 1008.44 1008.17
1000.05 1000.73 1001.72 1002.69 1003.48 1004.68 1006.02 1007.10 1007.35 1007.61 1007.84 1008.22 1007.24 1006.66 1006.81 1007.25 1007.62 1008.10 1008.42 1009.02 1009.18 1009.47 1009.22 1009.27 1008.83 1008.40 1008.39 1007.34 1006.49 1005.93 1007.23 1007.68 1007.95 1007.83 1008.50 1008.40 1008.25 1008.36 1009.44 1009.40 1009.36 1009.45 1009.54 1009.59
999.17 999.85 1000.66 1002.17 1003.37 1004.32 1005.07 1005.09 1005.28 1006.88 1007.68 1007.53 1006.94 1006.26 1006.73 1006.88 1007.46 1007.74 1008.30 1008.77 1008.88 1009.04 1009.14 1009.23 1009.03 1008.46 1008.17 1008.38 1008.06 1008.80 1009.30 1009.39 1009.36 1009.73 1009.92 1009.34 1009.80 1010.03 1010.63 1010.81 1010.84 1010.72 1010.66 1010.95
998.44 999.39 1000.63 1002.03 1003.42 1004.73 1005.06 1004.82 1005.42 1006.68 1007.57 1007.62 1006.93 1006.55 1006.80 1006.92 1006.95 1007.33 1007.86 1008.20 1008.77 1009.34 1009.46 1009.33 1008.87 1008.56 1008.99 1009.19 1010.42 1010.54 1010.70 1010.73 1010.58 1011.13 1011.22 1011.34 1011.38 1011.73 1012.01 1012.05 1011.96 1011.80 1012.02 1011.95
998.37 999.38 1000.72 1001.94 1003.37 1004.19 1004.52 1004.80 1005.82 1006.42 1007.02 1006.66 1006.58 1006.03 1006.23 1006.50 1006.62 1006.90 1007.61 1008.20 1008.77 1009.09 1009.16 1008.68 1008.55 1009.20 1010.27 1011.85 1012.23 1012.56 1012.87 1012.68 1012.38 1012.08 1011.70 1012.05 1012.35 1012.86 1013.13 1013.15 1013.45 1013.37 1013.54 1013.65
999.03 1000.23 1001.72 1002.15 1003.03 1003.65 1004.62 1005.81 1006.31 1006.67 1006.62 1006.27 1005.76 1005.71 1006.22 1006.68 1006.52 1006.59 1007.16 1007.54 1007.93 1008.27 1008.45 1008.84 1009.12 1010.74 1012.70 1013.49 1014.06 1014.43 1014.27 1014.02 1013.68 1013.07 1012.63 1013.16 1013.29 1013.73 1014.22 1014.51 1014.87 1014.93 1015.25 1015.60
999.84 1001.08 1001.19 1002.23 1003.10 1003.65 1004.83 1005.64 1005.84 1006.39 1006.55 1006.20 1005.73 1006.00 1006.07 1006.73 1006.31 1006.37 1006.82 1007.12 1007.47 1007.77 1008.50 1008.88 1010.03 1011.59 1013.50 1014.41 1014.91 1015.29 1015.26 1015.05 1014.86 1014.83 1014.90 1014.87 1014.80 1014.89 1015.31 1015.62 1016.26 1016.57 1016.79 1017.02
1000.02 1000.78 1002.32 1003.73 1004.40 1004.42 1004.96 1005.50 1006.11 1006.05 1005.83 1006.04 1006.00 1006.07 1006.22 1006.66 1006.79 1006.66 1006.90 1006.85 1007.36 1007.53 1008.58 1009.21 1010.68 1013.40 1014.75 1015.41 1015.88 1016.01 1016.05 1016.01 1016.13 1016.09 1016.09 1016.15 1016.20 1016.41 1016.68 1017.21 1017.79 1017.96 1018.29 1018.52
1000.58 1001.60 1003.70 1004.47 1005.58 1005.52 1005.47 1005.66 1005.90 1006.06 1006.34 1006.45 1006.37 1006.55 1006.58 1007.11 1007.21 1006.85 1006.62 1006.67 1007.82 1008.60 1009.32 1010.69 1012.85 1014.61 1015.62 1016.21 1016.57 1016.88 1017.10 1017.28 1017.36 1017.54 1017.65 1017.65 1017.80 1018.06 1018.38 1018.79 1019.15 1019.35 1019.56 1019.81
1001.90 1003.32 1005.35 1006.25 1006.90 1007.27 1007.52 1007.35 1007.25 1007.48 1007.29 1006.97 1006.74 1006.67 1006.64 1007.03 1007.08 1007.16 1007.48 1008.79 1008.82 1009.59 1010.80 1012.61 1014.56 1015.93 1016.74 1017.31 1017.67 1017.94 1018.32 1018.60 1018.81 1018.99 1019.14 1019.23 1019.43 1019.81 1020.06 1020.24 1020.47 1020.51 1020.70 1021.12
1004.53 1005.54 1007.22 1008.17 1008.88 1008.90 1008.91 1008.75 1008.34 1008.26 1008.06 1007.54 1006.99 1007.06 1007.22 1007.57 1007.89 1008.59 1009.11 1009.73 1010.33 1011.48 1012.82 1014.67 1016.14 1017.18 1017.82 1018.33 1018.81 1019.19 1019.49 1019.78 1019.96 1020.16 1020.25 1020.36 1020.59 1020.87 1021.11 1021.43 1021.60 1021.79 1022.05 1022.23
1007.33 1008.90 1009.39 1009.80 1009.47 1009.67 1009.58 1009.40 1009.01 1008.87 1008.44 1007.84 1007.39 1007.49 1007.78 1008.88 1009.45 1010.12 1011.00 1011.12 1012.19 1014.05 1015.34 1016.58 1017.60 1018.45 1019.05 1019.47 1019.86 1020.14 1020.40 1020.62 1020.85 1021.06 1021.21 1021.36 1021.59 1021.83 1022.26 1022.65 1022.83 1023.07 1023.35 1023.55
1009.61 1010.77 1011.20 1011.15 1011.07 1011.01 1010.75 1010.41 1009.95 1009.55 1008.71 1008.31 1008.28 1008.65 1009.95 1010.50 1011.04 1012.24 1013.30 1013.99 1015.09 1016.20 1017.18 1018.01 1018.88 1019.56 1020.16 1020.58 1020.88 1021.10 1021.30 1021.44 1021.60 1021.82 1022.03 1022.26 1022.56 1022.76 1022.92 1023.11 1023.59 1023.87 1024.30 1024.60
Thickness
5352 5355 5361 5366 5371 5373 5376 5389 5399 5415 5413 5412 5421 5430 5453 5459 5468 5467 5470 5477 5483 5490 5496 5504 5516 5525 5537 5541 5555 5562 5574 5573 5578 5592 5598 5612 5619 5614 5617 5608 5609 5616 5615 5636
5339 5342 5346 5352 5356 5360 5366 5382 5392 5401 5401 5406 5415 5429 5434 5448 5458 5460 5461 5465 5472 5481 5485 5489 5507 5521 5530 5529 5540 5544 5558 5570 5569 5579 5588 5595 5597 5599 5605 5605 5606 5608 5600 5619
5328 5329 5333 5338 5344 5347 5349 5367 5381 5387 5390 5403 5417 5428 5431 5437 5445 5449 5452 5456 5457 5465 5474 5485 5495 5506 5517 5523 5526 5529 5547 5561 5570 5577 5585 5590 5578 5584 5589 5597 5593 5603 5604 5612
5314 5316 5320 5326 5333 5335 5338 5352 5372 5397 5388 5397 5404 5414 5422 5439 5436 5438 5443 5446 5451 5455 5456 5477 5484 5495 5504 5514 5519 5533 5538 5537 5555 5563 5566 5570 5574 5579 5583 5584 5588 5583 5599 5599
5304 5302 5306 5315 5322 5326 5329 5345 5362 5374 5393 5402 5400 5409 5411 5426 5427 5431 5437 5439 5446 5448 5451 5464 5477 5480 5487 5495 5509 5515 5525 5537 5543 5546 5558 5560 5562 5574 5580 5584 5587 5587 5593 5598
5300 5297 5300 5309 5315 5317 5332 5338 5349 5352 5384 5393 5402 5411 5412 5420 5423 5430 5438 5438 5439 5437 5450 5454 5461 5463 5472 5481 5490 5496 5508 5522 5531 5539 5543 5549 5552 5570 5577 5583 5591 5589 5585 5596
5299 5298 5301 5308 5312 5318 5326 5334 5337 5344 5363 5379 5400 5404 5410 5417 5420 5423 5432 5426 5429 5434 5437 5447 5452 5458 5465 5473 5483 5487 5497 5510 5514 5526 5524 5527 5568 5572 5572 5573 5580 5583 5583 5583
5300 5300 5302 5306 5310 5314 5319 5326 5329 5340 5360 5385 5394 5399 5406 5412 5414 5401 5407 5426 5425 5419 5410 5426 5451 5466 5466 5475 5480 5485 5488 5499 5502 5510 5525 5545 5550 5563 5566 5565 5570 5571 5571 5574
5302 5303 5304 5307 5310 5313 5317 5325 5328 5334 5343 5372 5395 5398 5403 5406 5410 5409 5403 5404 5410 5407 5410 5427 5449 5472 5483 5481 5483 5486 5481 5487 5496 5499 5508 5515 5548 5551 5558 5561 5553 5564 5562 5563
5305 5306 5307 5309 5312 5314 5318 5328 5327 5328 5339 5363 5374 5390 5399 5402 5399 5398 5401 5400 5405 5404 5415 5430 5452 5464 5474 5482 5485 5471 5473 5481 5489 5498 5504 5519 5535 5545 5550 5542 5543 5552 5555 5558
5311 5311 5313 5315 5317 5319 5317 5329 5329 5332 5341 5353 5373 5386 5393 5399 5395 5393 5404 5399 5401 5404 5421 5439 5450 5458 5473 5479 5488 5482 5480 5489 5493 5500 5496 5500 5534 5534 5535 5538 5542 5543 5549 5552
5320 5320 5322 5323 5324 5325 5323 5330 5333 5332 5336 5356 5375 5384 5394 5401 5407 5399 5395 5418 5417 5425 5434 5448 5455 5457 5465 5479 5484 5492 5492 5507 5510 5514 5517 5520 5523 5527 5528 5526 5529 5531 5531 5537
5330 5330 5331 5333 5334 5333 5333 5339 5338 5331 5335 5351 5367 5386 5392 5397 5401 5399 5396 5410 5420 5426 5442 5436 5449 5448 5469 5470 5483 5493 5499 5505 5504 5506 5515 5517 5520 5519 5507 5506 5509 5512 5517 5521
5340 5340 5341 5343 5344 5346 5344 5341 5343 5338 5349 5362 5379 5386 5395 5402 5401 5401 5401 5409 5416 5421 5424 5432 5439 5447 5466 5474 5482 5486 5496 5501 5498 5504 5508 5511 5510 5501 5495 5491 5494 5495 5498 5500
5349 5349 5349 5349 5350 5349 5345 5343 5348 5350 5362 5376 5386 5384 5394 5402 5403 5403 5402 5403 5408 5416 5415 5415 5423 5447 5452 5465 5467 5482 5492 5493 5494 5496 5490 5485 5489 5488 5477 5481 5480 5480 5479 5483
5356 5356 5354 5353 5353 5349 5344 5339 5349 5356 5363 5367 5383 5396 5395 5398 5400 5401 5404 5402 5406 5407 5412 5414 5429 5439 5437 5455 5476 5486 5469 5464 5463 5475 5463 5466 5472 5474 5457 5459 5460 5459 5457 5457
5362 5363 5363 5357 5353 5354 5354 5365 5371 5361 5362 5368 5384 5398 5394 5399 5399 5401 5398 5401 5407 5409 5409 5411 5417 5430 5441 5436 5456 5437 5435 5437 5441 5439 5435 5452 5441 5444 5435 5433 5433 5434 5436 5432
5365 5365 5363 5359 5354 5350 5354 5364 5364 5360 5359 5365 5379 5389 5391 5394 5397 5398 5401 5401 5401 5395 5401 5407 5419 5431 5425 5436 5407 5416 5419 5420 5427 5417 5417 5416 5419 5414 5410 5411 5412 5416 5412 5413
5364 5365 5361 5359 5355 5355 5359 5363 5361 5361 5364 5372 5378 5393 5395 5394 5397 5402 5396 5392 5389 5393 5400 5408 5424 5418 5426 5385 5391 5390 5387 5392 5398 5403 5411 5406 5401 5395 5390 5391 5389 5393 5388 5387
5360 5360 5353 5361 5359 5360 5357 5356 5354 5355 5362 5373 5389 5394 5386 5386 5393 5400 5400 5400 5400 5402 5402 5394 5411 5394 5368 5370 5369 5368 5372 5377 5382 5390 5401 5390 5390 5384 5375 5371 5369 5368 5365 5362
5356 5354 5364 5362 5358 5362 5358 5360 5368 5362 5365 5372 5387 5385 5386 5384 5394 5398 5399 5395 5399 5411 5399 5409 5401 5393 5365 5362 5362 5360 5361 5364 5365 5364 5363 5364 5365 5366 5361 5357 5352 5348 5346 5344
5366 5366 5358 5350 5351 5361 5368 5369 5362 5371 5381 5371 5376 5382 5386 5382 5384 5394 5393 5400 5396 5415 5393 5403 5399 5358 5350 5349 5347 5348 5349 5350 5348 5348 5347 5346 5345 5343 5340 5336 5331 5329 5326 5323
5368 5367 5352 5362 5349 5357 5376 5379 5378 5377 5366 5368 5374 5380 5379 5376 5379 5387 5401 5409 5397 5386 5386 5380 5358 5345 5341 5340 5339 5337 5336 5334 5332 5329 5327 5327 5324 5321 5318 5315 5312 5310 5308 5306
5367 5362 5344 5349 5345 5344 5343 5349 5354 5351 5355 5364 5371 5381 5385 5378 5385 5381 5389 5370 5383 5383 5382 5359 5339 5330 5327 5325 5324 5323 5317 5315 5314 5312 5310 5308 5305 5302 5299 5297 5295 5293 5291 5286
5349 5349 5335 5331 5324 5327 5329 5333 5343 5347 5350 5361 5375 5374 5379 5376 5375 5369 5372 5375 5371 5366 5361 5334 5324 5317 5315 5312 5308 5304 5302 5299 5298 5297 5294 5293 5290 5287 5284 5280 5278 5274 5271 5269
5332 5319 5326 5321 5333 5331 5332 5336 5345 5346 5349 5362 5375 5376 5380 5363 5364 5364 5352 5379 5369 5333 5322 5313 5307 5301 5298 5296 5294 5292 5291 5289 5286 5284 5281 5278 5275 5271 5266 5261 5258 5255 5251 5249
5318 5310 5308 5312 5317 5319 5324 5330 5337 5341 5357 5367 5371 5370 5349 5355 5354 5341 5332 5332 5321 5311 5305 5301 5295 5290 5285 5282 5280 5279 5278 5278 5276 5273 5270 5266 5261 5258 5256 5253 5248 5244 5238 5234